Regional Weather Roundup
Issued by NWS

Home | Current Version | Previous Version | Graphics & Text | Print | Product List | Glossary On
Versions: 1 2 3 4 5 6 7 8 9 10 11 12 13 14 15 16 17 18 19 20 21 22 23 24
000
ASUS45 KCYS 212210
RWRWY

WYOMING REGIONAL WEATHER ROUNDUP
NATIONAL WEATHER SERVICE CHEYENNE WY
400 PM MDT TUE MAR 21 2017

NOTE:  "FAIR" INDICATES FEW OR NO CLOUDS BELOW 12,000 FEET
WITH NO SIGNIFICANT WEATHER AND/OR OBSTRUCTIONS TO VISIBILITY.

WYZ001-212300-
YELLOWSTONE NATIONAL PARK

CITY           SKY/WX    TMP DP  RH WIND       PRES   REMARKS
LK YELLOWSTONE   N/A     49  28  44 VRB5      30.03F
W YELLOWSTONE  NOT AVBL

$$
WYZ002>013-054>058-071-098>099-212300-
NORTHERN WYOMING

CITY           SKY/WX    TMP DP  RH WIND       PRES   REMARKS
JACKSON        MOSUNNY   52  36  54 CALM      29.98F
CODY           CLOUDY    45  36  70 SE6       30.01F
GREYBULL       PTSUNNY   49  38  65 CALM      29.99F
WORLAND        FAIR      51  42  71 VRB5      29.99F
SHERIDAN       CLOUDY    44  39  82 SE8       30.04F
BUFFALO        CLOUDY    45  40  82 SE18      30.05F
GILLETTE       PTSUNNY   44  36  73 SE21      30.10F
HULETT         CLOUDY    36  32  87 E13       30.16F WCI  27
NEWCASTLE      MOCLDY    45  32  61 SE20      30.15F

$$
WYZ014>020-022>026-101>103-212300-
CENTRAL WYOMING

CITY           SKY/WX    TMP DP  RH WIND       PRES   REMARKS
BIG PINEY      CLOUDY    51  39  63 NE8       30.04S
PINEDALE       CLOUDY    48  36  61 SE5       30.05S
DUBOIS         MOCLDY    46  36  66 SE3       30.01F
LANDER         PTSUNNY   55  38  52 VRB3      29.97F
RIVERTON       FAIR      53  36  52 CALM      30.00F
CASPER         FAIR      54  39  57 E15       30.01F
DOUGLAS        FAIR      54  34  46 SE21G26   30.05F

$$
WYZ021-027>030-104>119-212300-
SOUTHERN WYOMING

CITY           SKY/WX    TMP DP  RH WIND       PRES   REMARKS
EVANSTON       CLOUDY    60  28  29 SW20G26   30.02S
KEMMERER         N/A     52  32  46 N6        30.03F
FORT BRIDGER   CLOUDY    58  32  37 SW6       30.05S
ROCK SPRINGS   LGT RAIN  57  32  38 NW16G29   30.01R
DIXON            N/A     65  26  23 SW20G26   30.05F
RAWLINS        FAIR      64  23  21 SW18G29   30.03F
SARATOGA       CLOUDY    55  32  41 S28G41    30.08R
LARAMIE        CLOUDY    52  33  48 S16       30.10R
CHEYENNE       LGT RAIN  52  33  48 SE14      30.13F
TORRINGTON     PTSUNNY   58  31  35 SE20      30.07F
PINE BLUFFS    MOCLDY    59  32  36 SE16G23   30.13S

$$




USA.gov is the U.S. government's official web portal to all federal, state and local government web resources and services.